Weather History for MWCR - October, 2012

Change the Weather History Date:

Monday, October 15, 2012

  Actual Average Record
Temperature  
Mean Temperature 82 °F -  
Max Temperature 88 °F 84 °F 89 °F (2004)
Min Temperature 76 °F 76 °F 75 °F (1998)
Cooling Degree Days 17    
Growing Degree Days 32 (Base 50)    
Moisture  
Dew Point 76 °F    
Average Humidity 79    
Maximum Humidity 94    
Minimum Humidity 66    
Precipitation  
Precipitation 0.00 in - - ()
Sea Level Pressure  
Sea Level Pressure 29.81 in    
Wind  
Wind Speed 5 mph ()    
Max Wind Speed 10 mph    
Max Gust Speed -    
Visibility 6.2 miles    
Events      
Averages and records for this station are not official NWS values.
T = Trace of Precipitation, MM = Missing Value Source: Averaged Metar Reports

Daily Weather History Graph

Daily Weather History Graph

Search for Another Location

Airport or City:

Trip Planner

Search our weather history database for the weather conditions in past years. The results will help you decide how hot, cold, wet, or windy it might be!

Date:

Astronomy

Oct. 15, 2012 Rise Set
Actual Time 6:19 AM EST 6:01 PM EST
Civil Twilight 5:57 AM EST 6:24 PM EST
Nautical Twilight 5:32 AM EST 6:49 PM EST
Astronomical Twilight 5:06 AM EST 7:15 PM EST
Moon 6:21 AM EST (10/15) 6:11 PM EST (10/15)
Length of Visible Light 12h 26m
Length of Day
11h 42m
New Moon, 0% of the Moon is Illuminated
Oct 15
New Moon
Oct 21
First Quarter
Oct 29
Full
Nov 6
Last Quarter
Nov 13
New

Hourly Weather History & Observations

Time (EST) Temp. Heat Index Dew Point Humidity Pressure Visibility Wind Dir Wind Speed Gust Speed Precip Events Conditions
6:00 AM 78.8 °F - 77.0 °F 94% 29.80 in 6.2 mi Variable 3.5 mph - N/A   Scattered Clouds
7:00 AM 79 °F - 77 °F 92% 29.83 in 6 mi North 4.6 mph - -   Partly Cloudy
7:00 AM 78.8 °F - 77.0 °F 94% 29.83 in 6.2 mi Variable 3.5 mph - N/A   Partly Cloudy
8:00 AM 82.4 °F 89.5 °F 75.2 °F 79% 29.83 in 6.2 mi NNE 4.6 mph - N/A   Partly Cloudy
9:00 AM 84.2 °F 94.1 °F 77.0 °F 79% 29.83 in 6.2 mi NE 5.8 mph - N/A   Partly Cloudy
10:00 AM 86.0 °F 96.9 °F 77.0 °F 74% 29.86 in 6.2 mi NE 4.6 mph - N/A   Partly Cloudy
11:00 AM 86.0 °F 96.9 °F 77.0 °F 74% 29.86 in 6.2 mi ENE 6.9 mph - N/A   Partly Cloudy
12:00 PM 82.4 °F 90.9 °F 77.0 °F 84% 29.83 in 6.2 mi WNW 9.2 mph - N/A   Scattered Clouds
1:00 PM 86.0 °F 96.9 °F 77.0 °F 74% 29.83 in 6.2 mi NNW 10.4 mph - N/A   Mostly Cloudy
2:00 PM 87.8 °F 99.7 °F 77.0 °F 70% 29.80 in 6.2 mi NW 9.2 mph - N/A   Scattered Clouds
3:00 PM 87.8 °F 97.6 °F 75.2 °F 66% 29.77 in 6.2 mi NNW 10.4 mph - N/A   Partly Cloudy
4:00 PM 86.0 °F 96.9 °F 77.0 °F 74% 29.77 in 6.2 mi NW 9.2 mph - N/A   Partly Cloudy
5:00 PM 86.0 °F 95.1 °F 75.2 °F 70% 29.77 in 6.2 mi NW 8.1 mph - N/A   Partly Cloudy
6:00 PM 84.2 °F 92.3 °F 75.2 °F 74% 29.77 in 6.2 mi NNW 4.6 mph - N/A   Partly Cloudy
7:00 PM 83 °F - 77 °F 79% 29.81 in 6 mi NNW 5.8 mph - -   Partly Cloudy
7:00 PM 82.4 °F 90.9 °F 77.0 °F 84% 29.80 in 6.2 mi NNW 5.8 mph - N/A   Scattered Clouds
8:00 PM 82.4 °F 89.5 °F 75.2 °F 79% 29.80 in 6.2 mi NNW 4.6 mph - N/A   Partly Cloudy
9:00 PM 82.4 °F 89.5 °F 75.2 °F 79% 29.83 in 6.2 mi NNW 3.5 mph - N/A   Partly Cloudy
10:00 PM 82.4 °F 89.5 °F 75.2 °F 79% 29.83 in 6.2 mi Calm Calm - N/A   Partly Cloudy